Location: Newark
(49.9819°N, 3.0344°E)
Time: 17:44:43
(UTC+00:00)

ISS - Pass Details

Date: 29 January 2020
Orbit: 415 x 422 km, 51.6° (Epoch: 23 February)

Event Time Altitude Azimuth Distance (km) Brightness Sun altitude
Rises 18:12:27 0° 272° (W) 2,378 1.8 -15.5°
Reaches altitude 10° 18:14:35 10° 275° (W) 1,513 0.3 -15.8°
Maximum altitude 18:17:57 63° 358° (N) 475 -3.6 -16.3°
Enters shadow 18:18:54 41° 61° (ENE) 622 -3.4 -16.5°
